TimeCDT,TemperatureF,Dew PointF,Humidity,Sea Level PressureIn,VisibilityMPH,Wind Direction,Wind SpeedMPH,Gust SpeedMPH,PrecipitationIn,Events,Conditions,WindDirDegrees,DateUTC
12:15 AM,62.4,40.8,45,30.01,10.0,Calm,Calm,-,N/A,,Overcast,0,2013-05-07 05:15:00
12:35 AM,59.2,47.8,66,30.02,10.0,Calm,Calm,-,N/A,,Overcast,0,2013-05-07 05:35:00
12:55 AM,58.6,46.8,65,30.02,10.0,Calm,Calm,-,N/A,,Overcast,0,2013-05-07 05:55:00
1:15 AM,60.6,43.0,52,30.01,10.0,Calm,Calm,-,N/A,,Overcast,0,2013-05-07 06:15:00
1:35 AM,61.2,40.1,46,30.01,10.0,Calm,Calm,-,N/A,,Overcast,0,2013-05-07 06:35:00
1:55 AM,61.5,39.4,44,30.01,10.0,East,3.5,-,N/A,,Overcast,80,2013-05-07 06:55:00
2:15 AM,60.8,38.5,44,30.01,10.0,Calm,Calm,-,N/A,,Overcast,0,2013-05-07 07:15:00
2:35 AM,60.8,38.7,44,30.00,10.0,Calm,Calm,-,N/A,,Overcast,0,2013-05-07 07:35:00
2:55 AM,60.8,38.1,43,30.01,10.0,Calm,Calm,-,N/A,,Overcast,0,2013-05-07 07:55:00
3:15 AM,59.0,42.3,54,30.01,10.0,Calm,Calm,-,N/A,,Overcast,0,2013-05-07 08:15:00
3:35 AM,57.9,41.5,54,30.01,10.0,Calm,Calm,-,N/A,,Overcast,0,2013-05-07 08:35:00
3:55 AM,58.3,41.5,54,30.01,10.0,Calm,Calm,-,N/A,,Overcast,0,2013-05-07 08:55:00
4:15 AM,55.8,45.5,68,30.01,10.0,Calm,Calm,-,N/A,,Overcast,0,2013-05-07 09:15:00
4:35 AM,58.1,39.7,50,30.01,10.0,Calm,Calm,-,N/A,,Overcast,0,2013-05-07 09:35:00
4:55 AM,57.2,39.2,51,30.02,10.0,East,3.5,-,N/A,,Overcast,80,2013-05-07 09:55:00
5:15 AM,55.4,39.4,55,30.02,10.0,Calm,Calm,-,N/A,,Scattered Clouds,0,2013-05-07 10:15:00
5:35 AM,52.7,41.4,65,30.02,10.0,Calm,Calm,-,N/A,,Clear,0,2013-05-07 10:35:00
5:55 AM,51.3,42.8,73,30.03,10.0,Calm,Calm,-,N/A,,Scattered Clouds,0,2013-05-07 10:55:00
6:15 AM,49.5,43.7,81,30.03,10.0,Calm,Calm,-,N/A,,Clear,0,2013-05-07 11:15:00
6:35 AM,50.2,43.9,79,30.04,10.0,Calm,Calm,-,N/A,,Clear,0,2013-05-07 11:35:00
6:55 AM,52.9,46.4,79,30.04,10.0,North,3.5,-,N/A,,Clear,350,2013-05-07 11:55:00
7:15 AM,55.8,47.1,73,30.04,10.0,North,3.5,-,N/A,,Clear,10,2013-05-07 12:15:00
7:35 AM,57.7,45.7,64,30.04,10.0,Calm,Calm,-,N/A,,Clear,0,2013-05-07 12:35:00
7:55 AM,59.4,45.1,59,30.04,10.0,Calm,Calm,-,N/A,,Clear,0,2013-05-07 12:55:00
8:15 AM,61.9,44.8,53,30.05,10.0,Calm,Calm,-,N/A,,Clear,0,2013-05-07 13:15:00
8:35 AM,64.4,43.2,46,30.06,10.0,Calm,Calm,-,N/A,,Clear,0,2013-05-07 13:35:00
8:55 AM,66.6,41.5,40,30.06,10.0,Calm,Calm,-,N/A,,Clear,0,2013-05-07 13:55:00
9:15 AM,67.5,39.2,36,30.06,10.0,Calm,Calm,-,N/A,,Clear,0,2013-05-07 14:15:00
9:35 AM,68.7,42.8,39,30.06,10.0,Calm,Calm,-,N/A,,Clear,0,2013-05-07 14:35:00
9:55 AM,69.8,42.1,37,30.06,10.0,East,3.5,-,N/A,,Clear,80,2013-05-07 14:55:00
10:15 AM,70.9,41.2,34,30.06,10.0,NNW,3.5,-,N/A,,Clear,340,2013-05-07 15:15:00
10:35 AM,72.7,37.0,27,30.06,10.0,East,3.5,-,N/A,,Clear,80,2013-05-07 15:35:00
10:55 AM,73.4,35.4,25,30.06,10.0,NE,4.6,-,N/A,,Clear,50,2013-05-07 15:55:00
11:15 AM,74.3,39.2,28,30.05,10.0,ENE,6.9,-,N/A,,Clear,60,2013-05-07 16:15:00
11:35 AM,74.5,36.0,25,30.05,10.0,NE,6.9,-,N/A,,Clear,50,2013-05-07 16:35:00
11:55 AM,74.7,38.5,27,30.05,10.0,NE,6.9,-,N/A,,Clear,40,2013-05-07 16:55:00
12:15 PM,75.4,40.3,28,30.04,10.0,NNE,6.9,-,N/A,,Clear,20,2013-05-07 17:15:00
12:35 PM,75.2,36.7,25,30.03,10.0,ENE,3.5,-,N/A,,Clear,60,2013-05-07 17:35:00
12:55 PM,76.1,40.6,28,30.03,10.0,NNE,4.6,-,N/A,,Clear,20,2013-05-07 17:55:00
1:15 PM,76.1,37.4,25,30.03,10.0,Calm,Calm,-,N/A,,Clear,0,2013-05-07 18:15:00
1:35 PM,76.8,42.8,30,30.03,10.0,North,5.8,-,N/A,,Clear,350,2013-05-07 18:35:00
1:55 PM,77.0,35.6,22,30.02,10.0,Calm,Calm,-,N/A,,Clear,0,2013-05-07 18:55:00
2:15 PM,77.4,34.7,21,30.01,10.0,Calm,Calm,-,N/A,,Clear,0,2013-05-07 19:15:00
2:35 PM,77.4,36.7,23,30.00,10.0,Calm,Calm,-,N/A,,Clear,0,2013-05-07 19:35:00
2:55 PM,77.7,38.3,24,30.00,10.0,WNW,4.6,-,N/A,,Clear,300,2013-05-07 19:55:00
3:15 PM,77.7,38.1,24,30.00,10.0,NNE,5.8,-,N/A,,Clear,20,2013-05-07 20:15:00
3:35 PM,78.1,40.1,26,29.99,10.0,Calm,Calm,-,N/A,,Clear,0,2013-05-07 20:35:00
3:55 PM,77.9,36.0,22,29.99,10.0,Calm,Calm,-,N/A,,Clear,0,2013-05-07 20:55:00
4:15 PM,77.9,38.5,24,29.99,10.0,Calm,Calm,-,N/A,,Clear,0,2013-05-07 21:15:00
4:35 PM,77.7,34.0,20,29.98,10.0,Calm,Calm,-,N/A,,Clear,0,2013-05-07 21:35:00
4:55 PM,77.5,37.6,24,29.98,10.0,Calm,Calm,-,N/A,,Clear,0,2013-05-07 21:55:00
5:15 PM,78.4,38.1,23,29.98,10.0,NE,4.6,-,N/A,,Clear,40,2013-05-07 22:15:00
5:35 PM,77.9,38.8,25,29.98,10.0,Calm,Calm,-,N/A,,Clear,0,2013-05-07 22:35:00
5:55 PM,77.0,39.4,26,29.98,10.0,NNE,3.5,-,N/A,,Clear,20,2013-05-07 22:55:00
6:15 PM,77.0,42.1,29,29.98,10.0,Calm,Calm,-,N/A,,Clear,0,2013-05-07 23:15:00
6:35 PM,77.2,36.3,23,29.97,10.0,Calm,Calm,-,N/A,,Clear,0,2013-05-07 23:35:00
6:55 PM,74.1,45.0,35,29.98,10.0,NNE,3.5,-,N/A,,Clear,20,2013-05-07 23:55:00
7:15 PM,74.1,43.2,33,29.98,10.0,North,3.5,-,N/A,,Clear,350,2013-05-08 00:15:00
7:35 PM,72.9,42.8,34,29.98,10.0,Calm,Calm,-,N/A,,Clear,0,2013-05-08 00:35:00
7:55 PM,69.8,45.5,42,29.98,10.0,Calm,Calm,-,N/A,,Clear,0,2013-05-08 00:55:00
8:15 PM,68.2,45.1,43,29.99,10.0,NNW,3.5,-,N/A,,Clear,330,2013-05-08 01:15:00
8:35 PM,68.0,45.9,45,29.99,4.0,Calm,Calm,-,N/A,,Haze,0,2013-05-08 01:35:00
8:55 PM,65.3,45.5,49,29.99,10.0,Calm,Calm,-,N/A,,Clear,0,2013-05-08 01:55:00
9:15 PM,61.9,49.3,63,30.00,10.0,Calm,Calm,-,N/A,,Clear,0,2013-05-08 02:15:00
9:35 PM,60.4,48.7,65,30.00,10.0,East,4.6,-,N/A,,Clear,100,2013-05-08 02:35:00
9:55 PM,61.3,47.1,60,30.00,10.0,Calm,Calm,-,N/A,,Clear,0,2013-05-08 02:55:00
10:15 PM,58.5,50.0,73,30.00,10.0,Calm,Calm,-,N/A,,Clear,0,2013-05-08 03:15:00
10:35 PM,59.0,49.6,71,30.00,1.0,Calm,Calm,-,N/A,,Haze,0,2013-05-08 03:35:00
10:55 PM,58.3,49.1,71,30.00,2.5,Calm,Calm,-,N/A,,Haze,0,2013-05-08 03:55:00
11:15 PM,57.4,49.3,74,29.99,1.5,Calm,Calm,-,N/A,,Haze,0,2013-05-08 04:15:00
11:35 PM,57.4,47.7,70,29.99,7.0,Calm,Calm,-,N/A,,Clear,0,2013-05-08 04:35:00
11:55 PM,55.9,48.2,75,29.99,10.0,Calm,Calm,-,N/A,,Clear,0,2013-05-08 04:55:00